FW5837 Weather Reports


time (UTC)temp
C
wind
direction
speed
KPH
gust
KPH
rain 1hr
cm
rain 24hr
cm
rain mn
cm
humidity
%
barometer
mb
20260507023528 5 257 4.8 17.7 0.03 1.78 1.78 95 1007.2
20260507023043 5 252 6.4 17.7 0.03 1.78 1.78 95 1007.0
20260507022528 5 292 6.4 16.1 0.03 1.78 1.78 95 1006.8
20260507022033 5 275 8.0 16.1 0.03 1.78 1.78 95 1007.0
20260507021544 5 255 4.8 19.3 0.05 1.78 1.78 95 1006.9
20260507021028 5 244 8.0 19.3 0.05 1.78 1.78 95 1006.9
20260507020529 5 318 6.4 17.7 0.05 1.78 1.78 95 1006.9
20260507020040 6 220 4.8 19.3 0.05 1.78 1.78 95 1007.1
20260507015529 6 254 6.4 19.3 0.05 1.78 1.78 95 1007.0
20260507015029 6 298 8.0 19.3 0.05 1.78 1.78 95 1007.1
20260507014538 6 263 3.2 20.9 0.03 1.75 1.75 95 1007.2
20260507014029 6 261 6.4 20.9 0.03 1.75 1.75 95 1007.1
20260507013528 6 270 6.4 14.5 0.05 1.75 1.75 95 1007.0
20260507013050 6 251 4.8 16.1 0.05 1.75 1.75 95 1007.0
20260507012528 6 280 4.8 16.1 0.05 1.75 1.75 95 1006.7
20260507012029 6 282 4.8 16.1 0.03 1.73 1.73 95 1006.8
20260507011547 6 256 4.8 14.5 0.03 1.73 1.73 95 1006.9
20260507011028 6 263 4.8 12.9 0.03 1.73 1.73 95 1006.7
20260507010533 7 257 6.4 12.9 0.03 1.73 1.73 95 1006.7
20260507010050 7 299 4.8 16.1 0.03 1.73 1.73 95 1006.6
20260507005530 7 265 4.8 19.3 0.03 1.75 1.73 95 1006.6
20260507005029 7 298 8.0 19.3 0.03 1.75 1.73 95 1006.6
20260507004544 7 251 4.8 24.1 0.03 1.75 1.73 95 1006.5
20260507004030 7 224 6.4 24.1 0.03 1.75 1.73 95 1006.3
20260507003530 7 232 8.0 24.1 0.00 1.73 1.70 95 1006.1
20260507003042 7 257 8.0 24.1 0.00 1.73 1.70 96 1006.2
20260507002529 8 265 11.3 29.0 0.00 1.73 1.70 96 1005.9
20260507002029 8 270 12.9 29.0 0.00 1.73 1.70 96 1005.8
20260507001609 8 252 12.9 29.0 0.00 1.73 1.70 96 1005.7
20260507001028 8 248 11.3 24.1 0.00 1.73 1.70 96 1005.9
20260507000529 8 229 11.3 24.1 0.00 1.73 1.70 96 1005.9
20260507000047 9 238 9.7 24.1 0.00 1.73 1.70 96 1005.6
20260506235531 9 234 8.0 16.1 0.00 1.73 1.70 96 1005.6
20260506235029 9 267 8.0 16.1 0.00 1.73 1.70 96 1005.5
20260506234556 9 265 8.0 16.1 0.00 1.73 1.70 96 1005.6
20260506234029 9 228 8.0 25.7 0.00 1.73 1.70 96 1005.5
20260506233529 10 254 11.3 25.7 0.03 1.73 1.70 95 1005.5
20260506233045 10 260 9.7 19.3 0.08 1.73 1.70 95 1005.5
20260506232530 10 198 8.0 19.3 0.10 1.73 1.70 96 1005.5
20260506232032 11 276 8.0 17.7 0.10 1.73 1.70 96 1005.4
20260506231543 11 244 8.0 30.6 0.10 1.73 1.70 96 1005.2
20260506231029 11 262 11.3 30.6 0.10 1.73 1.70 96 1005.1
20260506230528 11 269 9.7 27.4 0.10 1.73 1.70 96 1005.0
20260506230041 11 247 11.3 27.4 0.10 1.73 1.70 96 1004.9
20260506225531 12 234 8.0 16.1 0.10 1.75 1.70 96 1004.8
20260506225029 12 225 4.8 12.9 0.10 1.75 1.70 96 1004.8
20260506224547 12 256 4.8 12.9 0.10 1.75 1.70 96 1004.9
20260506224028 12 240 3.2 11.3 0.10 1.75 1.70 96 1004.7
20260506223528 12 241 4.8 17.7 0.08 1.73 1.68 96 1004.8
20260506223044 12 250 6.4 17.7 0.03 1.68 1.63 96 1004.8
20260506222529 12 209 9.7 17.7 0.03 1.65 1.60 96 1004.7
20260506222029 12 216 6.4 17.7 0.03 1.65 1.60 96 1004.7
20260506221546 12 247 9.7 17.7 0.05 1.65 1.60 96 1004.7
20260506221028 12 234 6.4 33.8 0.05 1.65 1.60 95 1004.7
20260506220528 12 195 6.4 33.8 0.08 1.65 1.60 96 1004.8
20260506215528 12 196 11.3 27.4 0.13 1.65 1.60 96 1004.7
20260506215028 12 200 11.3 24.1 0.18 1.65 1.60 96 1004.6
20260506214543 12 229 8.0 20.9 0.20 1.65 1.60 96 1004.7
20260506214030 12 224 8.0 20.9 0.20 1.65 1.60 96 1004.7
20260506213528 12 204 6.4 29.0 0.25 1.65 1.60 96 1004.6
20260506213040 12 205 6.4 29.0 0.28 1.65 1.60 96 1004.6
20260506212529 12 227 9.7 29.0 0.25 1.63 1.57 96 1004.6
20260506212030 12 255 9.7 20.9 0.28 1.63 1.57 96 1004.5
20260506211550 12 191 8.0 22.5 0.25 1.60 1.55 96 1004.5
20260506211029 12 184 9.7 22.5 0.28 1.60 1.55 96 1004.7
20260506210530 12 209 8.0 22.5 0.25 1.57 1.52 96 1004.8
20260506210044 12 236 4.8 12.9 0.25 1.55 1.47 96 1004.8
20260506205533 12 254 6.4 14.5 0.20 1.47 1.45 96 1004.7
20260506205033 12 228 4.8 22.5 0.18 1.47 1.42 96 1004.8
20260506204544 12 236 6.4 27.4 0.18 1.45 1.40 96 1004.8
20260506204036 12 188 9.7 27.4 0.15 1.42 1.37 96 1004.8
20260506203533 12 335 11.3 27.4 0.13 1.40 1.32 96 1004.9
20260506203043 12 183 8.0 19.3 0.10 1.37 1.32 96 1004.9
20260506202533 12 240 6.4 24.1 0.10 1.37 1.32 96 1004.9
20260506202032 12 340 11.3 24.1 0.10 1.32 1.30 96 1004.8
20260506201543 12 201 8.0 27.4 0.10 1.32 1.30 96 1005.0
20260506201033 12 169 8.0 43.5 0.08 1.32 1.27 97 1005.0
20260506200533 12 198 9.7 43.5 0.10 1.32 1.27 97 1005.0
20260506200047 12 235 11.3 29.0 0.10 1.30 1.24 96 1005.0
20260506195532 12 220 8.0 30.6 0.13 1.30 1.24 96 1005.1
20260506195029 12 248 12.9 30.6 0.13 1.30 1.24 96 1005.2
20260506194551 12 219 9.7 29.0 0.13 1.27 1.22 96 1005.3
20260506194032 12 195 9.7 32.2 0.15 1.27 1.22 96 1005.4
20260506193529 12 263 11.3 32.2 0.18 1.27 1.22 96 1005.3
20260506193050 12 180 9.7 32.2 0.18 1.27 1.22 96 1005.3
20260506192531 12 201 11.3 30.6 0.20 1.27 1.22 96 1005.4
20260506192034 12 165 12.9 29.0 0.18 1.24 1.19 96 1005.5
20260506191544 12 124 8.0 25.7 0.20 1.24 1.19 96 1005.5
20260506191033 12 235 9.7 32.2 0.23 1.24 1.19 96 1005.5
20260506190530 12 167 12.9 32.2 0.23 1.22 1.17 96 1005.6
20260506190044 12 189 11.3 29.0 0.23 1.19 1.14 96 1005.6
20260506185532 12 187 12.9 32.2 0.28 1.17 1.12 96 1005.7
20260506185034 12 204 9.7 32.2 0.30 1.14 1.09 96 1005.7
20260506184545 12 182 11.3 29.0 0.36 1.14 1.09 96 1005.8
20260506184033 12 174 11.3 27.4 0.38 1.12 1.07 96 1005.7
20260506183534 12 192 11.3 27.4 0.38 1.09 1.04 96 1005.6
20260506183041 12 196 12.9 29.0 0.41 1.09 1.04 96 1005.9
20260506182532 12 145 9.7 29.0 0.43 1.07 1.02 96 1005.7
20260506182032 12 111 8.0 24.1 0.46 1.07 1.02 96 1005.8
20260506181559 12 198 8.0 19.3 0.46 1.04 0.99 96 1005.9
20260506181032 12 261 8.0 19.3 0.46 1.02 0.97 96 1006.1
20260506180534 12 152 9.7 25.7 0.46 0.99 0.94 96 1006.3
20260506180049 12 150 8.0 25.7 0.46 0.97 0.91 96 1006.3
20260506175550 12 144 8.0 20.9 0.38 0.86 0.81 96 1006.5
20260506175032 12 155 8.0 20.9 0.38 0.84 0.79 96 1006.4
20260506174545 12 134 6.4 19.3 0.36 0.79 0.74 95 1006.5
20260506174035 12 144 6.4 22.5 0.33 0.74 0.69 95 1006.4
20260506173532 12 130 8.0 22.5 0.36 0.71 0.66 95 1006.6
20260506173059 12 231 9.7 25.7 0.33 0.66 0.61 95 1006.7
20260506172533 12 182 11.3 29.0 0.33 0.64 0.58 95 1006.8
20260506172032 12 150 11.3 29.0 0.33 0.61 0.56 95 1006.9
20260506171551 12 155 9.7 27.4 0.33 0.58 0.53 95 1007.0
20260506171032 12 199 14.5 27.4 0.33 0.56 0.51 95 1007.1
20260506170532 12 142 12.9 27.4 0.30 0.53 0.48 95 1007.1
20260506170045 12 167 9.7 27.4 0.30 0.51 0.46 95 1007.2
20260506165532 12 159 11.3 27.4 0.28 0.48 0.43 95 1007.2
20260506165033 12 182 12.9 25.7 0.28 0.46 0.41 95 1007.3
20260506164545 12 187 9.7 19.3 0.28 0.43 0.38 95 1007.3
20260506164030 12 152 6.4 25.7 0.25 0.41 0.36 95 1007.2
20260506163533 12 211 12.9 25.7 0.20 0.36 0.30 95 1007.2
20260506163043 12 165 11.3 20.9 0.20 0.33 0.28 95 1007.3
20260506162534 12 156 11.3 22.5 0.18 0.30 0.25 94 1007.2
20260506162033 12 134 11.3 25.7 0.18 0.28 0.23 94 1007.3
20260506161549 12 147 11.3 25.7 0.15 0.25 0.20 94 1007.3
20260506161031 12 190 11.3 22.5 0.15 0.23 0.18 94 1007.3
20260506160533 12 84 8.0 24.1 0.13 0.20 0.15 94 1007.3
20260506160058 12 161 8.0 25.7 0.13 0.20 0.15 94 1007.3
20260506155531 12 174 6.4 25.7 0.15 0.20 0.15 94 1007.4
20260506155032 12 166 8.0 25.7 0.13 0.18 0.13 94 1007.5
20260506154548 12 142 8.0 25.7 0.10 0.15 0.10 93 1007.5
20260506154031 12 184 8.0 17.7 0.10 0.15 0.10 93 1007.5
20260506153532 12 250 6.4 17.7 0.10 0.15 0.10 93 1007.7
20260506153046 12 187 8.0 19.3 0.08 0.13 0.08 92 1007.7
20260506152532 12 159 9.7 19.3 0.08 0.13 0.08 92 1007.6
20260506152032 12 238 8.0 27.4 0.05 0.10 0.05 92 1007.8
20260506151546 13 175 4.8 27.4 0.05 0.10 0.05 92 1008.1
20260506151031 13 218 4.8 14.5 0.03 0.08 0.03 91 1008.2
20260506150532 13 201 4.8 16.1 0.03 0.08 0.03 91 1008.1
20260506150049 13 231 8.0 24.1 0.00 0.05 0.00 90 1008.2
20260506145532 13 223 9.7 32.2 0.00 0.05 0.00 89 1008.1
20260506145031 13 199 9.7 32.2 0.00 0.05 0.00 88 1008.5
20260506144548 13 237 9.7 22.5 0.00 0.05 0.00 87 1008.4
20260506144033 13 212 8.0 22.5 0.00 0.05 0.00 85 1008.4
20260506143531 13 219 8.0 22.5 0.00 0.05 0.00 85 1008.5
20260506143044 13 213 9.7 22.5 0.00 0.05 0.00 84 1008.3
20260506142528 13 206 4.8 16.1 0.00 0.05 0.00 84 1008.5
20260506142028 13 219 4.8 17.7 0.00 0.05 0.00 84 1008.4
20260506141543 13 243 6.4 19.3 0.00 0.05 0.00 84 1008.4
20260506141032 13 240 6.4 19.3 0.00 0.05 0.00 84 1008.2
20260506140531 14 195 8.0 19.3 0.00 0.05 0.00 83 1008.1
20260506140039 14 255 9.7 17.7 0.00 0.05 0.00 84 1008.1
20260506135527 14 194 6.4 17.7 0.00 0.05 0.00 84 1008.1
20260506135031 13 170 6.4 17.7 0.00 0.05 0.00 84 1008.1
20260506134548 13 185 4.8 17.7 0.00 0.05 0.00 86 1007.9
20260506134033 13 199 4.8 17.7 0.00 0.05 0.00 86 1007.8
20260506133534 13 155 9.7 27.4 0.00 0.05 0.00 86 1007.9
20260506133045 13 205 9.7 27.4 0.00 0.05 0.00 87 1007.9
20260506132531 13 185 8.0 24.1 0.00 0.05 0.00 87 1008.0
20260506132035 12 205 11.3 24.1 0.00 0.05 0.00 88 1008.1
20260506131557 12 180 8.0 19.3 0.00 0.05 0.00 89 1008.0
20260506131031 12 233 6.4 30.6 0.00 0.05 0.00 89 1008.1
20260506130534 12 240 6.4 30.6 0.00 0.05 0.00 89 1008.2
20260506130053 12 126 8.0 17.7 0.00 0.05 0.00 90 1008.3
20260506125533 12 188 6.4 17.7 0.00 0.05 0.00 91 1008.2
20260506125031 11 143 4.8 14.5 0.00 0.05 0.00 91 1008.5
20260506124546 11 217 4.8 14.5 0.00 0.05 0.00 91 1008.6
20260506124031 11 223 4.8 17.7 0.00 0.05 0.00 91 1008.5
20260506123531 11 197 6.4 17.7 0.00 0.05 0.00 92 1008.6
20260506123041 11 197 4.8 11.3 0.00 0.05 0.00 93 1008.5
20260506122531 10 173 4.8 14.5 0.00 0.05 0.00 93 1008.5
20260506122031 10 165 3.2 16.1 0.00 0.05 0.00 93 1008.6
20260506121545 10 146 4.8 16.1 0.00 0.05 0.00 93 1008.5
20260506121031 10 211 4.8 16.1 0.00 0.05 0.00 93 1008.3
20260506120536 10 158 4.8 16.1 0.00 0.05 0.00 93 1008.5
20260506120044 10 167 6.4 12.9 0.00 0.05 0.00 93 1008.4
20260506115534 10 140 4.8 11.3 0.00 0.05 0.00 93 1008.2
20260506115032 10 86 4.8 12.9 0.00 0.05 0.00 93 1007.8
20260506114543 10 181 3.2 12.9 0.00 0.05 0.00 93 1007.8
20260506114031 10 209 3.2 20.9 0.00 0.05 0.00 93 1008.2
20260506113533 10 196 4.8 20.9 0.00 0.05 0.00 93 1008.3
20260506113043 10 121 8.0 20.9 0.00 0.05 0.00 93 1008.4
20260506112531 10 142 4.8 19.3 0.00 0.05 0.00 93 1008.5
20260506112031 10 154 8.0 22.5 0.00 0.05 0.00 93 1008.5
20260506111543 10 147 8.0 22.5 0.00 0.05 0.00 92 1008.6
20260506111035 10 186 6.4 19.3 0.00 0.05 0.00 92 1008.5
20260506110532 10 132 8.0 19.3 0.00 0.05 0.00 92 1008.4
20260506110047 10 167 8.0 19.3 0.00 0.05 0.00 92 1008.4
20260506105528 10 146 6.4 19.3 0.00 0.05 0.00 92 1008.3
20260506105030 10 159 4.8 19.3 0.00 0.05 0.00 92 1008.3
20260506104549 10 118 6.4 19.3 0.00 0.05 0.00 92 1008.4
20260506104030 10 126 6.4 16.1 0.00 0.05 0.00 91 1008.4
20260506103530 10 126 6.4 16.1 0.00 0.05 0.00 91 1008.2
20260506103045 10 130 6.4 16.1 0.00 0.05 0.00 90 1008.3
20260506102530 10 126 6.4 14.5 0.00 0.05 0.00 90 1008.3
20260506102030 10 178 4.8 12.9 0.00 0.05 0.00 90 1008.2
20260506101546 10 57 4.8 14.5 0.00 0.05 0.00 90 1008.2
20260506101031 11 105 3.2 14.5 0.00 0.05 0.00 90 1008.3
20260506100534 11 127 4.8 14.5 0.00 0.05 0.00 90 1008.2
20260506100044 11 127 8.0 14.5 0.00 0.05 0.00 89 1008.2
20260506095529 11 140 4.8 11.3 0.00 0.05 0.00 89 1008.2
20260506095029 11 140 4.8 11.3 0.00 0.05 0.00 89 1008.1
20260506094556 11 113 4.8 11.3 0.00 0.05 0.00 89 1008.1
20260506094033 11 102 3.2 14.5 0.00 0.05 0.00 89 1008.3
20260506093529 11 175 3.2 14.5 0.00 0.05 0.00 88 1008.4
20260506093046 11 119 4.8 14.5 0.00 0.05 0.00 88 1008.2
20260506092529 11 121 6.4 14.5 0.00 0.05 0.00 88 1008.3
20260506092030 11 121 6.4 14.5 0.00 0.05 0.00 87 1008.3
20260506091548 12 165 4.8 14.5 0.00 0.05 0.00 87 1008.5
20260506091032 12 140 4.8 14.5 0.00 0.05 0.00 86 1008.5
20260506090534 12 119 4.8 16.1 0.00 0.05 0.00 86 1008.4
20260506090044 12 132 3.2 16.1 0.00 0.05 0.00 86 1008.5
20260506085529 12 150 6.4 16.1 0.00 0.05 0.00 86 1008.5
20260506085028 12 215 8.0 14.5 0.00 0.05 0.00 86 1008.5
20260506084545 12 157 6.4 14.5 0.00 0.05 0.00 87 1008.4
20260506084030 12 163 6.4 12.9 0.00 0.05 0.00 88 1008.4
20260506083530 12 200 6.4 16.1 0.00 0.05 0.00 88 1008.5
20260506083042 12 209 6.4 16.1 0.00 0.05 0.00 89 1008.5
20260506082532 12 130 6.4 16.1 0.00 0.05 0.00 89 1008.6
20260506082032 12 171 4.8 12.9 0.00 0.05 0.00 89 1008.7
20260506081544 11 142 4.8 11.3 0.00 0.05 0.00 90 1008.7
20260506081031 11 205 3.2 11.3 0.00 0.05 0.00 91 1008.7
20260506080529 11 207 6.4 11.3 0.00 0.05 0.00 91 1008.8
20260506073047 11 99 4.8 11.3 0.00 0.05 0.00 90 1009.0
20260506072534 12 163 3.2 6.4 0.00 0.05 0.00 90 1009.0
20260506072032 12 0 1.6 8.0 0.00 0.05 0.00 89 1009.0
20260506071547 12 113 1.6 8.0 0.00 0.05 0.00 89 1009.1
20260506071029 12 113 1.6 8.0 0.00 0.05 0.00 89 1009.1
20260506070529 12 0 0.0 0.0 0.00 0.05 0.00 88 1009.2
20260506062029 12 235 3.2 11.3 0.00 0.05 0.00 88 1009.0
20260506061545 12 252 3.2 11.3 0.00 0.05 0.00 88 1008.9
20260506061031 12 254 3.2 9.7 0.00 0.05 0.00 87 1009.0
20260506060531 12 263 3.2 12.9 0.00 0.05 0.00 87 1008.9
20260506051030 13 221 3.2 12.9 0.00 0.05 0.00 82 1009.4
20260506050531 13 221 3.2 12.9 0.00 0.05 0.00 82 1009.4
20260506045031 13 246 3.2 16.1 0.00 0.05 0.00 81 1009.6
20260506044549 13 200 4.8 16.1 0.00 0.05 0.00 81 1009.5
20260506044032 14 236 6.4 17.7 0.00 0.05 0.00 80 1009.4
20260506043530 14 227 6.4 17.7 0.00 0.05 0.00 80 1009.5
20260506043043 14 234 8.0 17.7 0.00 0.05 0.00 80 1009.4
20260506042532 14 236 4.8 22.5 0.00 0.05 0.00 79 1009.3
20260506042031 14 194 4.8 22.5 0.00 0.05 0.00 79 1009.3
20260506041543 14 225 4.8 16.1 0.00 0.05 0.00 78 1009.3
20260506041032 14 189 6.4 16.1 0.00 0.05 0.00 78 1009.5
20260506040532 14 263 4.8 19.3 0.00 0.05 0.00 78 1009.5
20260506040052 14 236 6.4 19.3 0.00 0.05 0.00 77 1009.4
20260506035531 14 233 4.8 16.1 0.00 0.05 0.05 78 1009.5
20260506035032 14 263 6.4 14.5 0.00 0.05 0.05 78 1009.4
20260506034539 14 248 4.8 16.1 0.00 0.05 0.05 78 1009.4
20260506034031 14 221 3.2 16.1 0.00 0.05 0.05 78 1009.5
20260506033530 14 217 6.4 16.1 0.00 0.05 0.05 78 1009.4
20260506033046 14 223 6.4 14.5 0.00 0.05 0.05 78 1009.5
20260506032531 14 246 4.8 19.3 0.00 0.05 0.05 78 1009.5
20260506032036 14 165 4.8 24.1 0.00 0.05 0.05 78 1009.5
20260506031549 14 235 6.4 24.1 0.00 0.05 0.05 78 1009.5
20260506031033 14 277 8.0 19.3 0.00 0.05 0.05 79 1009.5
20260506030531 13 216 8.0 17.7 0.00 0.05 0.05 80 1009.7
20260506030044 13 197 3.2 19.3 0.00 0.05 0.05 82 1009.7
20260506025532 13 188 9.7 19.3 0.00 0.05 0.05 82 1009.7
20260506025033 13 188 6.4 16.1 0.00 0.05 0.05 82 1009.7
20260506024550 13 182 6.4 16.1 0.00 0.05 0.05 81 1009.9
20260506024031 13 142 4.8 16.1 0.00 0.05 0.05 81 1009.7